Regional Weather Roundup
Issued by NWS

Home | Current Version | Previous Version | Graphics & Text | Print | Product List | Glossary On
Versions: 1 2 3 4 5 6 7 8 9 10 11 12 13 14 15 16 17 18 19 20 21 22 23 24 25 26 27 28 29 30 31 32 33 34 35 36 37 38 39 40 41 42 43 44 45 46 47 48 49 50
729
ASUS43 KIND 110859
RWRIN

WEATHER ROUNDUP FOR INDIANA
NATIONAL WEATHER SERVICE INDIANAPOLIS IN
400 AM EST SUN DEC 11 2016

NOTE: "FAIR" INDICATES FEW OR NO CLOUDS BELOW 12,000 FEET WITH NO
SIGNIFICANT WEATHER AND/OR OBSTRUCTIONS TO VISIBILITY.

* - STATION DOES NOT REPORT WEATHER SUCH AS PRECIPITATION OR FOG.

+ - STATION NOT QUALITY CONTROLLED BY THE NATIONAL WEATHER SERVICE.
    USE DATA WITH CAUTION...ESPECIALLY DEWPOINT AND RELATIVE
    HUMIDITY OBSERVATIONS.

INZ001>003-010>013-019-020-111000-
NORTHWEST INDIANA

CITY           SKY/WX    TMP DP  RH WIND       PRES   REMARKS

$$

LMZ046-743>745-111000-
SOUTHERN LAKE MICHIGAN

STATION/POSITION TIME  TEMP    WIND        PRES    WAVE
                       AIR SEA DIR/SP/G            HT
                 (UTC) (F)     (DEG/KT/KT) (MB)    (FT)
BURNS HARBOR     0830   24     140/  9/ 14 1024.7F

$$

INZ004-005-014>016-021>024-111000-
NORTH CENTRAL INDIANA

CITY           SKY/WX    TMP DP  RH WIND       PRES   REMARKS
GOSHEN         LGT SNOW  24  20  84 S9        30.27F FOG     WCI  14
PERU/GRISSOM   FLURRIES  25  23  93 SE9       30.24F WCI  15
SOUTH BEND     LGT SNOW  23  21  92 SE9       30.27F FOG     WCI  13

$$

INZ006>009-017-018-025>027-111000-
NORTHEAST INDIANA

CITY           SKY/WX    TMP DP  RH WIND       PRES   REMARKS
ANGOLA *+      CLOUDY    21  21 100 S6        30.28F WCI  14
FORT WAYNE     LGT SNOW  24  21  88 SE9       30.29F FOG     WCI  14
KENDALLVILLE + LGT SNOW  24  22  92 SE7       30.28F WCI  15

$$

INZ028-029-035-036-043>045-051>053-111000-
WEST CENTRAL INDIANA

CITY           SKY/WX    TMP DP  RH WIND       PRES   REMARKS
CRAWFORDSVL +  CLOUDY    27  20  76 SE9       30.23F WCI  18
GREENCASTLE +  CLOUDY    30  21  69 SE8       30.24F WCI  23
LAFAYETTE      CLOUDY    26  23  88 E10       30.22F WCI  16
TERRE HAUTE    CLOUDY    31  18  58 SE12      30.23F WCI  22

$$

INZ030>032-037>040-046>048-054>057-064-065-111000-
CENTRAL INDIANA

CITY           SKY/WX    TMP DP  RH WIND       PRES   REMARKS
GREENWOOD *+   CLOUDY    30  20  68 SE9       30.27F WCI  21
INDIANAPOLIS   CLOUDY    29  18  63 SE10      30.25F WCI  20
-EAGLE CREEK   CLOUDY    29  19  66 SE7       30.25F WCI  22
KOKOMO +       CLOUDY    25  23  92 SE8       30.27F WCI  16
SHELBYVILLE    CLOUDY    30  19  63 SE9       30.26F WCI  22

$$

INZ033-034-041-042-049-050-058-059-111000-
EAST CENTRAL INDIANA

CITY           SKY/WX    TMP DP  RH WIND       PRES   REMARKS
MUNCIE         CLOUDY    27  22  81 SE8       30.27F WCI  19

$$

INZ060-061-067>069-081>083-085>088-111000-
SOUTHWEST INDIANA

CITY           SKY/WX    TMP DP  RH WIND       PRES   REMARKS
EVANSVILLE     CLOUDY    34  19  54 SE6       30.26F WCI  29
HUNTINGBURG *+ CLOUDY    32  21  64 SE6       30.28S WCI  26

$$

INZ062-063-066-070>080-084-089>092-111000-
SOUTH CENTRAL AND SOUTHEAST INDIANA

CITY           SKY/WX    TMP DP  RH WIND       PRES   REMARKS
BLOOMINGTON    CLOUDY    30  17  58 SE8       30.25F WCI  22
MADISON *+     CLOUDY    32  19  59 E6        30.32S WCI  26
SEYMOUR +      CLOUDY    32  19  59 SE6       30.30F WCI  26

$$





USA.gov is the U.S. government's official web portal to all federal, state and local government web resources and services.